Lid_Strength_Index
1 -0 -1 -1 -1 -1 -1 -1 -1 -1 -1 -2 -1 -1 -1 -1 -1 -1 -1 -1 -1 -1 -1 -1 -1 -1 -1 -1 -1 -1 -1 -1 -2 -1 -1 -1 -2 -1 -1 -1 -1 -1 -2
-0 -0 -1 -2 -1 -1 -1 -1 -1 -1 -1 -1 -1 -1 -1 -1 -1 -1 -1 -1 -1 -1 -1 -1 -1 -1 -1 -1 -1 -1 -1 -1 -1 -1 -1 -1 -1 -1 -1 -1 -1 -1 -2
-0 -0 -1 -1 -1 -1 -2 -1 -1 -1 -1 -1 -1 -1 -1 -1 -1 -1 -1 -1 -1 -1 -1 -1 -1 -1 -1 -1 -1 -1 -2 -2 -1 -1 -1 -1 -1 -1 -1 -1 -1 -2 -2
-0 -1 -1 -1 -1 -1 -2 -1 -1 -1 -1 -1 -1 -1 -1 -1 -1 -1 -1 -1 -1 -1 -1 -1 -1 -2 -1 -1 -1 -2 -2 -2 -1 -1 -1 -1 -1 -1 -1 -1 -1 -1 -2
0 -0 -0 -1 -1 -1 -1 -1 -2 -2 -1 -1 -1 -1 -1 -1 -1 -1 -1 -1 -1 -1 -1 -2 -2 -1 -1 -1 -1 -1 -2 -2 -1 -1 -1 -1 -1 -1 -1 -1 -1 -2 -2
11 11 8 2 -1 -1 -2 -2 -2 -2 -2 -2 -2 -1 -1 -1 -1 -1 -1 -1 -1 -1 -1 -1 -2 -1 -1 -1 -1 -1 -1 -1 -1 -1 -1 -1 -1 -2 -2 -1 -1 -1 -2
13 13 12 6 4 2 -1 -1 -2 -1 -2 -2 -2 -2 -1 -1 -1 -1 -1 -1 -1 -1 -1 -1 -1 -1 -1 -1 -1 -1 -1 -1 -1 -1 -1 -1 -1 -2 -2 -1 -1 -1 -1
15 14 14 11 8 7 5 2 -1 -2 -1 -2 -2 -2 -2 -1 -1 -1 -1 -1 -1 -1 -1 -1 -1 -1 -2 -1 -1 -1 -1 0 -0 -1 -1 -1 -1 -2 -2 -1 -2 -1 -2
15 14 14 15 12 10 8 5 3 -1 -1 -1 -1 -1 -1 -1 -1 -1 -1 -1 -1 -1 -1 -1 -1 -2 -2 -2 -1 -1 -0 0 -1 -1 -1 -1 -1 -2 -2 -1 -1 -2 -2
15 16 16 15 15 13 12 7 6 2 -0 -1 -0 0 0 0 -0 -1 -1 -1 -1 -1 -1 -1 -1 -1 -1 -1 -1 -1 0 1 -1 -1 -1 -1 -1 -2 -2 -1 -2 -2 -2
17 16 17 17 16 15 12 11 9 5 -0 1 1 2 0 -1 -1 -1 0 -0 -1 -1 -1 -1 -1 -1 -1 -0 -0 -0 1 -1 -1 -1 -1 -1 -1 -2 -2 -2 -2 -2 -2
18 19 17 17 16 15 14 13 11 9 2 -1 -1 -1 -0 -0 -0 -0 1 1 -1 -1 -1 -1 -1 -1 -0 -1 -1 0 -1 -1 -1 -1 -1 -1 -1 -2 -2 -2 -1 -2 -2
17 17 18 18 17 17 16 14 13 11 7 0 -0 1 1 2 0 0 1 -0 -1 1 -1 -1 -1 -1 -1 -1 -1 -1 -1 -1 -1 -0 -1 -1 -1 -2 -2 -1 -2 -2 -2
19 18 17 18 18 18 17 16 15 13 10 6 1 1 -0 0 2 1 1 1 1 0 -0 -1 -1 -1 -1 0 -1 -1 -1 0 -1 -1 -0 0 -1 -2 -2 -1 -2 -2 -2
20 19 18 17 17 17 17 17 15 15 13 10 5 1 0 0 1 2 2 2 2 1 0 -0 -1 -1 -1 -0 -1 -0 -1 0 -0 -1 -0 1 -0 -1 -2 -1 -2 -2 -2
20 20 19 18 17 17 17 17 16 15 14 12 9 1 1 1 1 2 2 2 1 1 0 -0 0 0 -0 0 0 0 1 1 1 -0 -0 -1 -0 -1 -2 -2 -1 -2 -2
20 20 20 19 18 18 17 16 16 15 14 12 9 4 1 1 1 1 2 2 1 1 -0 -1 0 0 1 2 3 3 3 3 3 1 -0 -1 0 0 -1 -2 -2 -2 -2
21 21 20 20 19 19 18 17 16 15 13 11 11 8 1 2 2 2 2 1 -0 -1 -0 -0 1 3 4 5 6 6 6 4 4 4 1 -1 0 -1 -1 -1 -1 -2 -1
21 21 21 20 20 20 18 18 17 16 14 15 14 10 5 1 2 2 1 0 0 -0 0 0 1 4 6 8 8 9 9 8 7 5 4 2 -0 -1 -1 -0 -0 -0 -1
22 22 21 20 20 20 19 19 18 16 17 15 13 12 9 7 3 2 1 1 0 0 1 2 5 5 6 8 9 10 10 11 9 8 7 5 2 1 0 1 1 1 1
22 23 22 22 21 20 20 21 20 19 18 16 15 15 14 10 8 3 2 1 0 1 2 3 5 7 9 8 9 9 10 10 11 10 9 7 6 4 3 3 2 2 2
23 23 23 23 22 21 20 20 20 19 18 17 15 16 15 14 13 11 2 1 1 2 3 5 6 8 8 7 7 8 10 9 11 12 11 9 9 8 7 6 5 5 3
22 22 22 22 21 21 21 20 20 19 19 18 19 18 17 16 14 10 7 1 1 2 4 5 5 5 7 7 6 9 11 12 12 12 12 12 10 9 9 8 7 6 5
20 20 20 20 20 20 20 21 21 21 22 21 20 19 18 16 15 14 8 2 2 3 5 5 5 4 5 7 8 9 9 8 12 14 13 13 12 11 10 10 9 8 6
19 19 19 19 19 19 20 20 20 21 21 20 20 20 19 17 16 15 11 3 2 3 4 4 5 5 4 6 7 8 8 10 10 11 15 14 13 13 12 11 10 9 8
17 17 18 17 18 17 19 20 20 21 21 21 21 21 20 19 18 15 14 12 3 3 4 4 4 4 5 6 7 7 8 9 10 11 12 13 14 15 13 12 11 10 9